La Push, WA

5:23 PM PDT on August 31, 2016 (GMT -0700)
Quillayute

Weather History for KUIL - March, 2014

Change the Weather History Date:

Sunday, March 16, 2014

  Actual Average Record
Temperature  
Mean Temperature 45 °F 44 °F  
Max Temperature 48 °F 51 °F 64 °F (1988)
Min Temperature 42 °F 37 °F 24 °F (1971)
Degree Days  
Heating Degree Days 20 21  
Month to date heating degree days 294 344  
Since 1 July heating degree days 3488 4189  
Cooling Degree Days 0 0  
Month to date cooling degree days 0 0  
Year to date cooling degree days 0 0  
Moisture  
Dew Point 44 °F    
Average Humidity 91    
Maximum Humidity 100    
Minimum Humidity 82    
Precipitation  
Precipitation 1.28 in 0.36 in 1.39 in (1969)
Month to date precipitation 12.42 5.76  
Year to date precipitation 34.99 30.72  
Sea Level Pressure  
Sea Level Pressure 30.15 in    
Wind  
Wind Speed 6 mph (SSW)    
Max Wind Speed 18 mph    
Max Gust Speed 28 mph    
Visibility 3 miles    
Events Rain    
T = Trace of Precipitation, MM = Missing Value Source: NWS Daily Summary

Daily Weather History Graph

Daily Weather History Graph

Search for Another Location

Airport or City:

Trip Planner

Search our weather history database for the weather conditions in past years. The results will help you decide how hot, cold, wet, or windy it might be!

Date:

Astronomy

Mar. 16, 2014 Rise Set
Actual Time 7:29 AM PDT 7:25 PM PDT
Civil Twilight 6:58 AM PDT 7:56 PM PDT
Nautical Twilight 6:22 AM PDT 8:32 PM PDT
Astronomical Twilight 5:45 AM PDT 9:09 PM PDT
Moon 7:52 PM PDT (3/16) 7:13 AM PDT (3/16)
Length of Visible Light 12h 58m
Length of Day
11h 56m
Full, 100% of the Moon is Illuminated
Mar 16
Full
Mar 23
Last Quarter
Mar 30
New
Apr 7
First Quarter
Apr 15
Full

Hourly Weather History & Observations

Time (PDT) Temp. Windchill Dew Point Humidity Pressure Visibility Wind Dir Wind Speed Gust Speed Precip Events Conditions
12:36 AM 48.9 °F - 48.0 °F 97% 30.21 in 2.5 mi SW 18.4 mph 27.6 mph 0.02 in Rain Light Rain
12:41 AM 48.0 °F - 44.1 °F 86% 30.21 in 2.5 mi SW 13.8 mph 27.6 mph 0.04 in Rain Rain
12:53 AM 48.0 °F - 46.0 °F 93% 30.22 in 3.0 mi WSW 9.2 mph 19.6 mph 0.06 in Rain Light Rain
1:08 AM 48.0 °F - 46.0 °F 93% 30.21 in 2.5 mi SW 10.4 mph - 0.03 in Rain Rain
1:53 AM 46.9 °F - 46.0 °F 97% 30.23 in 2.5 mi SW 5.8 mph - 0.16 in Rain Rain
2:23 AM 46.0 °F 42.5 °F 45.0 °F 96% 30.23 in 3.0 mi SW 6.9 mph - 0.08 in Rain Rain
2:53 AM 46.0 °F 44.8 °F 45.0 °F 96% 30.24 in 4.0 mi South 3.5 mph - 0.11 in Rain Light Rain
3:53 AM 45.0 °F 41.8 °F 45.0 °F 100% 30.23 in 3.0 mi South 5.8 mph - 0.05 in Rain Light Rain
4:05 AM 45.0 °F 41.8 °F 45.0 °F 100% 30.22 in 2.5 mi South 5.8 mph - 0.02 in Rain Rain
4:11 AM 46.0 °F 43.9 °F 45.0 °F 96% 30.22 in 2.5 mi South 4.6 mph - 0.03 in Rain Rain
4:19 AM 46.0 °F 44.8 °F 45.0 °F 96% 30.22 in 3.0 mi South 3.5 mph - 0.04 in Rain Rain
4:35 AM 45.0 °F 42.6 °F 45.0 °F 100% 30.22 in 3.0 mi SSE 4.6 mph - 0.06 in Rain Light Rain
4:43 AM 45.0 °F 43.5 °F 45.0 °F 100% 30.21 in 2.5 mi SSE 3.5 mph - 0.08 in Rain Rain
4:53 AM 45.0 °F 42.6 °F 45.0 °F 100% 30.22 in 2.5 mi South 4.6 mph - 0.09 in Rain Light Rain
5:01 AM 45.0 °F 43.5 °F 45.0 °F 100% 30.21 in 3.0 mi Variable 3.5 mph - 0.01 in Rain Rain
5:53 AM 45.0 °F 41.8 °F 45.0 °F 100% 30.21 in 2.5 mi Variable 5.8 mph - 0.07 in Rain Rain
6:00 AM 45.0 °F 43.5 °F 45.0 °F 100% 30.20 in 3.0 mi Variable 3.5 mph - 0.01 in Rain Light Rain
6:18 AM 45.0 °F 42.6 °F 45.0 °F 100% 30.21 in 3.0 mi SSE 4.6 mph - 0.02 in Rain Light Rain
6:33 AM 45.0 °F 41.2 °F 45.0 °F 100% 30.21 in 2.5 mi South 6.9 mph - 0.03 in Rain Rain
6:45 AM 45.0 °F 41.8 °F 45.0 °F 100% 30.21 in 2.5 mi South 5.8 mph - 0.06 in Rain Rain
6:53 AM 45.0 °F 41.2 °F 44.1 °F 97% 30.21 in 2.5 mi South 6.9 mph - 0.08 in Rain Rain
7:11 AM 45.0 °F - 44.1 °F 97% 30.20 in 3.0 mi Calm Calm - 0.04 in Rain Rain
7:26 AM 44.1 °F 40.8 °F 44.1 °F 100% 30.20 in 2.5 mi SE 5.8 mph - 0.08 in Rain Rain
7:36 AM 44.1 °F - 44.1 °F 100% 30.19 in 2.5 mi North - - 0.11 in Rain Rain
7:46 AM 44.1 °F 41.5 °F 44.1 °F 100% 30.19 in 4.0 mi South 4.6 mph - 0.12 in Rain Light Rain
7:53 AM 44.1 °F 40.8 °F 44.1 °F 100% 30.19 in 4.0 mi SSE 5.8 mph - 0.13 in Rain Light Rain
8:12 AM 44.1 °F - 44.1 °F 100% 30.19 in 2.5 mi Calm Calm - 0.02 in Rain Rain
8:17 AM 44.1 °F 41.5 °F 44.1 °F 100% 30.19 in 2.0 mi SE 4.6 mph - 0.03 in Rain Light Rain
8:44 AM 44.1 °F - 44.1 °F 100% 30.18 in 2.5 mi Calm Calm - 0.05 in Rain Light Rain
8:53 AM 44.1 °F 41.5 °F 44.1 °F 100% 30.19 in 2.5 mi SSE 4.6 mph - 0.07 in Rain Rain
9:04 AM 44.1 °F 41.5 °F 44.1 °F 100% 30.18 in 1.5 mi Variable 4.6 mph - 0.02 in Rain Rain
9:15 AM 44.1 °F 41.5 °F 44.1 °F 100% 30.18 in 2.0 mi SSE 4.6 mph - 0.03 in Rain Light Rain
9:35 AM 44.1 °F 40.8 °F 44.1 °F 100% 30.19 in 1.5 mi SSW 5.8 mph - 0.07 in Rain Rain
9:45 AM 44.1 °F - 44.1 °F 100% 30.19 in 1.8 mi Calm Calm - 0.09 in Rain Rain
9:53 AM 45.0 °F 43.5 °F 45.0 °F 100% 30.19 in 2.0 mi South 3.5 mph - 0.10 in Rain Rain
10:39 AM 45.0 °F 41.8 °F 44.1 °F 97% 30.19 in 1.8 mi South 5.8 mph - 0.07 in Rain Rain
10:44 AM 45.0 °F 41.8 °F 44.1 °F 97% 30.19 in 2.5 mi SSW 5.8 mph - 0.07 in Rain Light Rain
10:53 AM 45.0 °F 42.6 °F 45.0 °F 100% 30.19 in 3.0 mi SSW 4.6 mph - 0.08 in Rain Light Rain
11:01 AM 45.0 °F - 45.0 °F 100% 30.19 in 2.5 mi Calm Calm - 0.00 in Rain Light Rain
11:08 AM 45.0 °F 42.6 °F 45.0 °F 100% 30.19 in 3.0 mi South 4.6 mph - 0.01 in Rain Light Rain
11:17 AM 45.0 °F - 45.0 °F 100% 30.18 in 2.5 mi Calm Calm - 0.01 in Rain Light Rain
11:32 AM 46.0 °F 44.8 °F 45.0 °F 96% 30.18 in 2.0 mi Variable 3.5 mph - 0.02 in Rain Light Rain
11:53 AM 45.0 °F - 45.0 °F 100% 30.18 in 2.0 mi Calm Calm - 0.05 in Rain Light Rain
12:05 PM 45.0 °F 41.8 °F 45.0 °F 100% 30.17 in 1.5 mi ESE 5.8 mph - 0.01 in Rain Rain
12:12 PM 45.0 °F 41.8 °F 45.0 °F 100% 30.17 in 2.0 mi Variable 5.8 mph - 0.02 in Rain Light Rain
12:23 PM 46.0 °F 43.9 °F 45.0 °F 96% 30.17 in 2.5 mi SW 4.6 mph - 0.03 in Rain Light Rain
12:28 PM 45.0 °F 42.6 °F 45.0 °F 100% 30.17 in 3.0 mi SSW 4.6 mph - 0.03 in Rain Light Rain
12:38 PM 46.0 °F 44.8 °F 45.0 °F 96% 30.16 in 2.5 mi SSW 3.5 mph - 0.03 in Rain Light Rain
12:53 PM 46.0 °F 44.8 °F 45.0 °F 96% 30.17 in 2.5 mi SSE 3.5 mph - 0.04 in Rain Light Rain
1:09 PM 46.0 °F 44.8 °F 46.0 °F 100% 30.16 in 2.5 mi South 3.5 mph - 0.01 in Rain Light Rain
1:22 PM 46.0 °F 43.9 °F 45.0 °F 96% 30.15 in 3.0 mi South 4.6 mph - 0.01 in Rain Light Rain
1:29 PM 46.0 °F 44.8 °F 45.0 °F 96% 30.14 in 2.5 mi SE 3.5 mph - 0.01 in Rain Light Rain
1:44 PM 46.0 °F 43.1 °F 45.0 °F 96% 30.14 in 3.0 mi ESE 5.8 mph - 0.02 in Rain Light Rain
1:53 PM 45.0 °F 41.8 °F 44.1 °F 97% 30.13 in 5.0 mi SE 5.8 mph - 0.02 in   Overcast
2:35 PM 46.0 °F 43.1 °F 45.0 °F 96% 30.10 in 3.0 mi South 5.8 mph - 0.00 in Rain Light Rain
2:50 PM 46.4 °F 42.4 °F 44.6 °F 93% 30.10 in 3.0 mi SSW 8.1 mph - 0.00 in   Overcast
2:53 PM 46.0 °F 43.1 °F 45.0 °F 96% 30.10 in 4.0 mi Variable 5.8 mph - 0.00 in   Overcast
3:18 PM 45.0 °F 41.2 °F 44.1 °F 97% 30.10 in 4.0 mi SSW 6.9 mph - N/A   Overcast
3:27 PM 45.0 °F 40.1 °F 44.1 °F 97% 30.09 in 4.0 mi South 9.2 mph - 0.00 in Rain Light Rain
3:38 PM 45.0 °F 41.8 °F 44.1 °F 97% 30.09 in 4.0 mi SSW 5.8 mph - 0.00 in Rain Light Rain
3:44 PM 45.0 °F 41.2 °F 44.1 °F 97% 30.09 in 2.5 mi SSW 6.9 mph - 0.00 in Rain Light Rain
3:51 PM 44.6 °F 41.4 °F 44.6 °F 100% 30.09 in 1.2 mi SSW 5.8 mph - 0.01 in Rain Rain
3:53 PM 45.0 °F 40.6 °F 44.1 °F 97% 30.09 in 1.2 mi SSW 8.1 mph - 0.02 in Rain Rain
4:00 PM 45.0 °F 41.2 °F 44.1 °F 97% 30.09 in 2.0 mi SSW 6.9 mph - 0.00 in Rain Light Rain
4:21 PM 45.0 °F 40.6 °F 44.1 °F 97% 30.08 in 1.5 mi SW 8.1 mph - 0.03 in Rain Rain
4:26 PM 45.0 °F 41.2 °F 44.1 °F 97% 30.08 in 1.5 mi SW 6.9 mph - 0.04 in Rain Rain
4:35 PM 45.0 °F 39.3 °F 44.1 °F 97% 30.08 in 1.8 mi WSW 11.5 mph - 0.06 in Rain Light Rain
4:42 PM 44.1 °F 37.7 °F 43.0 °F 96% 30.08 in 1.8 mi WSW 12.7 mph - 0.07 in Rain Rain
4:45 PM 44.1 °F 37.7 °F 43.0 °F 96% 30.08 in 2.0 mi West 12.7 mph - 0.07 in Rain Light Rain
4:53 PM 44.1 °F 38.1 °F 43.0 °F 96% 30.08 in 2.5 mi West 11.5 mph - 0.08 in Rain Light Rain
5:04 PM 44.1 °F 39.5 °F 43.0 °F 96% 30.07 in 2.5 mi WSW 8.1 mph - 0.01 in Rain Light Rain
5:15 PM 44.1 °F 39.5 °F 43.0 °F 96% 30.07 in 1.8 mi WSW 8.1 mph - 0.02 in Rain Rain
5:46 PM 43.0 °F 38.2 °F 42.1 °F 97% 30.06 in 2.0 mi West 8.1 mph - 0.08 in Rain Light Rain
5:53 PM 43.0 °F 38.8 °F 42.1 °F 97% 30.06 in 2.0 mi WSW 6.9 mph - 0.08 in Rain Light Rain
6:23 PM 43.0 °F 40.3 °F 42.1 °F 97% 30.05 in 3.0 mi WSW 4.6 mph - 0.02 in Rain Light Rain
6:40 PM 43.0 °F - 42.1 °F 97% 30.04 in 2.5 mi Calm Calm - 0.02 in Rain Light Rain
6:47 PM 42.8 °F 41.1 °F 42.8 °F 100% 30.04 in 3.0 mi WSW 3.5 mph - 0.03 in Rain Light Rain
6:53 PM 43.0 °F - 43.0 °F 100% 30.05 in 3.0 mi Calm Calm - 0.03 in Rain Light Rain
6:55 PM 43.0 °F 41.3 °F 43.0 °F 100% 30.04 in 1.8 mi Variable 3.5 mph - 0.00 in Rain Light Rain
7:03 PM 43.0 °F 40.3 °F 42.1 °F 97% 30.04 in 1.2 mi WNW 4.6 mph - 0.02 in Rain Light Rain
7:05 PM 43.0 °F 40.3 °F 42.1 °F 97% 30.04 in 1.8 mi NW 4.6 mph - 0.02 in Rain Light Rain
7:07 PM 43.0 °F 41.3 °F 42.1 °F 97% 30.04 in 3.0 mi West 3.5 mph - 0.03 in Rain Light Rain
7:53 PM 44.1 °F 40.8 °F 42.1 °F 93% 30.04 in 6.0 mi NW 5.8 mph - 0.03 in   Overcast
8:53 PM 43.0 °F 38.2 °F 39.9 °F 89% 30.05 in 7.0 mi NW 8.1 mph - 0.00 in   Mostly Cloudy
9:53 PM 43.0 °F 38.2 °F 39.0 °F 86% 30.07 in 7.0 mi NW 8.1 mph 19.6 mph N/A   Mostly Cloudy
10:53 PM 42.1 °F 36.1 °F 37.9 °F 85% 30.08 in 6.0 mi NW 10.4 mph - N/A   Mostly Cloudy
11:53 PM 42.1 °F 36.1 °F 37.9 °F 85% 30.08 in 6.0 mi WNW 10.4 mph 20.7 mph N/A   Overcast